User: anonymous
Location: Unspecified
(0.0000°N, 0.0000°E)
Time: 21:21:16
(UTC+00:00)
Language:

SO-67 - Orbit

View from above orbital plane
View from above orbital plane
View from above satellite
View from above satellite

Ground track
Ground track

The orbit data is extracted from the following two-line orbital elements,

1 35870U 09049F   14245.45760927  .00006936  00000-0  21320-3 0  4698
2 35870 097.1593 264.3156 0002789 136.1858 329.9016 15.33992208275897
Epoch (UTC): 02 September 2014 10:58:57
Eccentricity: 0.0002789
inclination: 97.1593°
perigee height: 462 km
apogee height: 466 km
right ascension of ascending node: 264.3156°
argument of perigee: 136.1858°
revolutions per day: 15.33992208
mean anomaly at epoch: 329.9016°
orbit number at epoch: 27589

The dashed part of the orbit path shows where the satellite is in the earth's shadow,  

DLR